FW6725 Weather Reports


Display with metric or nautical units.
time (UTC)temp
F
wind
direction
speed
MPH
gust
MPH
rain 1hr
in
rain 24hr
in
rain mn
in
humidity
%
barometer
mb
20260507082043 53 358 5.0 11.0 0.00 0.00 0.00 23 1015.1
20260507081043 52 37 6.0 11.0 0.00 0.00 0.00 22 1015.1
20260507080041 52 61 4.0 10.0 0.00 0.00 0.00 23 1015.1
20260507075040 51 64 6.0 10.0 0.00 0.00 0.00 22 1015.1
20260507074038 51 28 4.0 7.0 0.00 0.00 0.00 26 1015.2
20260507073039 51 79 4.0 8.0 0.00 0.00 0.00 26 1015.3
20260507072037 51 51 5.0 10.0 0.00 0.00 0.00 27 1015.3
20260507071055 50 61 5.0 10.0 0.00 0.00 0.00 28 1015.3
20260507070034 50 54 4.0 9.0 0.00 0.00 0.00 29 1015.2
20260507065034 49 49 5.0 10.0 0.00 0.00 0.00 31 1015.3
20260507064034 49 44 6.0 10.0 0.00 0.00 0.00 31 1015.3
20260507063054 48 58 6.0 9.0 0.00 0.00 0.00 32 1015.2
20260507062032 47 52 6.0 10.0 0.00 0.00 0.00 34 1015.2
20260507061030 46 66 6.0 10.0 0.00 0.00 0.00 35 1015.1
20260507060030 46 54 6.0 10.0 0.00 0.00 0.00 36 1015.1
20260507055029 46 44 6.0 11.0 0.00 0.00 0.00 36 1015.1
20260507054027 44 50 6.0 12.0 0.00 0.00 0.00 37 1015.0
20260507053026 43 45 5.0 12.0 0.00 0.00 0.00 40 1015.0
20260507052044 41 11 4.0 6.0 0.00 0.00 0.00 45 1015.1
20260507051044 39 1 4.0 6.0 0.00 0.00 0.00 48 1015.0
20260507050024 39 18 4.0 6.0 0.00 0.00 0.00 47 1015.0
20260507045022 38 1 4.0 7.0 0.00 0.00 0.00 50 1015.0
20260507044021 37 343 4.0 7.0 0.00 0.00 0.00 53 1014.9
20260507043022 36 332 4.0 7.0 0.00 0.00 0.00 54 1014.9
20260507042040 37 343 4.0 6.0 0.00 0.00 0.00 53 1015.0
20260507041019 36 344 4.0 6.0 0.00 0.00 0.00 54 1015.0
20260507040037 36 341 5.0 7.0 0.00 0.00 0.00 54 1015.0
20260507035016 35 336 5.0 6.0 0.00 0.00 0.00 55 1015.0
20260507034046 35 355 5.0 6.0 0.00 0.00 0.00 52 1014.9
20260507033044 35 1 4.0 7.0 0.00 0.00 0.00 53 1014.8
20260507032045 38 30 5.0 9.0 0.00 0.00 0.00 46 1014.8
20260507031104 38 34 6.0 9.0 0.00 0.00 0.00 44 1014.7
20260507030043 37 29 6.0 9.0 0.00 0.00 0.00 44 1014.6
20260507025101 35 12 6.0 9.0 0.00 0.00 0.00 49 1014.6
20260507024040 34 5 5.0 7.0 0.00 0.00 0.00 50 1014.6
20260507023039 34 15 5.0 9.0 0.00 0.00 0.00 50 1014.6
20260507022057 35 14 6.0 9.0 0.00 0.00 0.00 49 1014.6
20260507021038 34 4 5.0 7.0 0.00 0.00 0.00 49 1014.6
20260507020036 34 346 3.0 6.0 0.00 0.00 0.00 50 1014.6
20260507015035 34 14 4.0 7.0 0.00 0.00 0.00 51 1014.6
20260507014055 37 38 5.0 10.0 0.00 0.00 0.00 45 1014.5
20260507013034 37 51 6.0 10.0 0.00 0.00 0.00 44 1014.4
20260507012052 37 49 5.0 9.0 0.00 0.00 0.00 43 1014.4
20260507011033 37 58 6.0 9.0 0.00 0.00 0.00 42 1014.4
20260507010031 38 50 7.0 10.0 0.00 0.00 0.00 40 1014.4
20260507005030 38 50 7.0 10.0 0.00 0.00 0.00 40 1014.3
20260507004029 39 43 7.0 10.0 0.00 0.00 0.00 39 1014.3
20260507003027 39 36 7.0 10.0 0.00 0.00 0.00 37 1014.2
20260507002026 39 40 7.0 11.0 0.00 0.00 0.00 38 1014.2
20260507001026 38 42 7.0 11.0 0.00 0.00 0.00 38 1014.2
20260507000025 38 21 5.0 10.0 0.00 0.00 0.00 39 1014.3
20260506235023 37 16 5.0 9.0 0.00 0.00 0.00 40 1014.3
20260506234024 37 23 5.0 8.0 0.00 0.00 0.00 40 1014.3
20260506233022 37 12 4.0 6.0 0.00 0.00 0.00 41 1014.3
20260506232020 37 2 4.0 6.0 0.00 0.00 0.00 41 1014.2
20260506231020 38 11 5.0 7.0 0.00 0.00 0.00 40 1014.2
20260506230019 38 15 5.0 7.0 0.00 0.00 0.00 40 1014.2
20260506225018 38 2 4.0 7.0 0.00 0.00 0.00 40 1014.2
20260506224017 38 353 4.0 6.0 0.00 0.00 0.00 40 1014.2
20260506223046 38 349 4.0 7.0 0.00 0.00 0.00 40 1014.1
20260506222046 39 349 4.0 7.0 0.00 0.00 0.00 40 1014.1
20260506221045 38 347 3.0 5.0 0.00 0.00 0.00 46 1014.0
20260506220043 38 336 3.0 5.0 0.00 0.00 0.00 52 1014.0
20260506215101 39 341 4.0 7.0 0.00 0.00 0.00 47 1014.0
20260506214042 40 343 4.0 5.0 0.00 0.00 0.00 44 1014.0
20260506213100 39 340 3.0 5.0 0.00 0.00 0.00 44 1013.9
20260506212039 39 340 3.0 5.0 0.00 0.00 0.00 45 1013.9
20260506211038 40 331 4.0 6.0 0.00 0.00 0.00 43 1013.8
20260506210037 41 340 4.0 6.0 0.00 0.00 0.00 39 1013.8
20260506205035 41 344 4.0 6.0 0.00 0.00 0.00 39 1013.8
20260506204037 41 335 3.0 6.0 0.00 0.00 0.00 42 1013.7
20260506203033 42 331 3.0 5.0 0.00 0.00 0.00 40 1013.7
20260506202033 42 337 4.0 6.0 0.00 0.00 0.00 38 1013.7
20260506201034 42 328 3.0 7.0 0.00 0.00 0.00 38 1013.7
20260506200033 42 315 3.0 5.0 0.00 0.00 0.00 36 1013.7
20260506195030 42 317 3.0 5.0 0.00 0.00 0.00 32 1013.6
20260506194031 43 331 3.0 5.0 0.00 0.00 0.00 28 1013.6
20260506193029 44 346 3.0 5.0 0.00 0.00 0.00 26 1013.6
20260506192028 44 358 3.0 5.0 0.00 0.00 0.00 25 1013.5
20260506191027 44 355 2.0 4.0 0.00 0.00 0.00 25 1013.4
20260506190047 44 356 2.0 4.0 0.00 0.00 0.00 27 1013.4
20260506185045 44 5 1.0 3.0 0.00 0.00 0.00 32 1013.3
20260506184024 45 12 1.0 3.0 0.00 0.00 0.00 30 1013.3
20260506183023 45 6 1.0 3.0 0.00 0.00 0.00 29 1013.3
20260506182023 46 332 2.0 6.0 0.00 0.00 0.00 28 1013.3
20260506181041 47 333 3.0 5.0 0.00 0.00 0.00 28 1013.2
20260506180040 47 338 3.0 5.0 0.00 0.00 0.00 27 1013.2
20260506175041 47 338 3.0 7.0 0.00 0.00 0.00 26 1013.1
20260506174019 48 348 5.0 8.0 0.00 0.00 0.00 24 1013.1
20260506173037 48 345 4.0 8.0 0.00 0.00 0.00 26 1013.1
20260506172037 49 332 4.0 8.0 0.00 0.00 0.00 25 1013.0
20260506171105 49 335 3.0 6.0 0.00 0.00 0.00 25 1012.9
20260506170046 50 324 4.0 9.0 0.00 0.00 0.00 24 1012.8
20260506165044 50 325 5.0 10.0 0.00 0.00 0.00 23 1012.8
20260506164043 50 310 6.0 12.0 0.00 0.00 0.00 23 1012.7
20260506163043 50 297 5.0 9.0 0.00 0.00 0.00 23 1012.8
20260506162041 50 313 5.0 9.0 0.00 0.00 0.00 24 1012.7
20260506161039 51 296 5.0 9.0 0.00 0.00 0.00 22 1012.7
20260506160039 51 305 5.0 9.0 0.00 0.00 0.00 21 1012.6
20260506155057 51 255 6.0 10.0 0.00 0.00 0.00 22 1012.7
20260506154037 51 254 7.0 10.0 0.00 0.00 0.00 21 1012.7
20260506153037 51 283 5.0 9.0 0.00 0.00 0.00 23 1012.6
20260506152055 51 278 3.0 6.0 0.00 0.00 0.00 23 1012.6
20260506151035 51 247 4.0 8.0 0.00 0.00 0.00 21 1012.6
20260506150033 51 271 6.0 9.0 0.00 0.00 0.00 21 1012.7
20260506145034 52 245 7.0 10.0 0.00 0.00 0.00 22 1012.8
20260506144031 51 239 8.0 12.0 0.00 0.00 0.00 23 1012.8
20260506143029 52 250 7.0 16.0 0.00 0.00 0.00 22 1012.8
20260506142030 53 265 6.0 11.0 0.00 0.00 0.00 24 1012.8
20260506141048 52 259 3.0 10.0 0.00 0.00 0.00 24 1012.7
20260506140027 51 268 4.0 7.0 0.00 0.00 0.00 25 1012.8
20260506135026 50 261 4.0 8.0 0.00 0.00 0.00 25 1012.9
20260506134026 50 275 4.0 6.0 0.00 0.00 0.00 25 1012.9
20260506133045 50 280 4.0 9.0 0.00 0.00 0.00 24 1012.9
20260506132023 50 301 6.0 10.0 0.00 0.00 0.00 25 1012.8
20260506131023 51 244 6.0 13.0 0.00 0.00 0.00 25 1012.8
20260506130021 52 233 8.0 13.0 0.00 0.00 0.00 24 1012.7
20260506125021 52 226 8.0 13.0 0.00 0.00 0.00 25 1012.7
20260506124020 53 229 8.0 12.0 0.00 0.00 0.00 27 1012.8
20260506123019 50 259 9.0 14.0 0.00 0.00 0.00 28 1012.9
20260506122017 52 279 8.0 14.0 0.00 0.00 0.00 26 1012.8
20260506121018 52 313 6.0 13.0 0.00 0.00 0.00 25 1012.8
20260506120046 52 297 5.0 12.0 0.00 0.00 0.00 27 1012.7
20260506115046 50 331 6.0 12.0 0.00 0.00 0.00 27 1012.7
20260506114045 49 305 5.0 10.0 0.00 0.00 0.00 30 1012.7
20260506113044 49 288 5.0 10.0 0.00 0.00 0.00 30 1012.8
20260506112103 48 318 6.0 10.0 0.00 0.00 0.00 29 1012.9
20260506111042 48 322 6.0 12.0 0.00 0.00 0.00 31 1012.8
20260506105040 50 313 8.0 14.0 0.00 0.00 0.00 30 1012.7
20260506104038 50 309 7.0 13.0 0.00 0.00 0.00 28 1012.7
20260506103037 50 266 7.0 16.0 0.00 0.00 0.00 28 1012.6
20260506102056 51 255 7.0 18.0 0.00 0.00 0.00 25 1012.6
20260506101036 49 265 8.0 18.0 0.00 0.00 0.00 26 1012.6
20260506100055 47 284 6.0 11.0 0.00 0.00 0.00 32 1012.6
20260506095033 47 294 8.0 15.0 0.00 0.00 0.00 31 1012.7
20260506094052 49 316 6.0 11.0 0.00 0.00 0.00 31 1012.5
20260506093053 48 305 7.0 13.0 0.00 0.00 0.00 31 1012.4
20260506092031 48 292 8.0 13.0 0.00 0.00 0.00 32 1012.4
20260506091030 47 307 7.0 13.0 0.00 0.00 0.00 34 1012.3
20260506090109 49 259 7.0 12.0 0.00 0.00 0.00 32 1012.3
20260506085107 47 279 7.0 17.0 0.00 0.00 0.00 33 1012.4
20260506084026 47 275 6.0 11.0 0.00 0.00 0.00 32 1012.3
20260506083027 48 295 5.0 12.0 0.00 0.00 0.00 34 1012.3